Weather History for Grand Island, NE

Change the Weather History Date:

Thursday, August 9, 2012

  Actual Average Record
Temperature  
Mean Temperature 74 °F 75 °F  
Max Temperature 85 °F 86 °F 109 °F (1934)
Min Temperature 63 °F 64 °F 45 °F (1927)
Degree Days  
Heating Degree Days 0 0  
Month to date heating degree days 0 0  
Since 1 June heating degree days 11 26  
Since 1 July heating degree days 0 2  
Cooling Degree Days 9 10  
Month to date cooling degree days 125 95  
Year to date cooling degree days 1193 722  
Since 1 June cooling degree days 1011 657  
Growing Degree Days 24 (Base 50)    
Moisture  
Dew Point 59 °F    
Average Humidity 63    
Maximum Humidity 93    
Minimum Humidity 32    
Precipitation  
Precipitation 0.00 in 0.11 in 2.04 in (2014)
Month to date precipitation 0.51 0.98  
Year to date precipitation 7.68 18.63  
Snow  
Snow 0.00 in 0.00 in - ()
Month to date snowfall 0.0 0.0  
Since 1 June snowfall 0.0 0.0  
Since 1 July snowfall 0.0 0.0  
Snow Depth 0.00 in    
Sea Level Pressure  
Sea Level Pressure 30.06 in    
Wind  
Wind Speed 9 mph (North)    
Max Wind Speed 16 mph    
Max Gust Speed 26 mph    
Visibility 10 miles    
Events      
T = Trace of Precipitation, MM = Missing Value Source: NWS Daily Summary

Daily Weather History Graph

Daily Weather History Graph

Search for Another Location

Airport:

Trip Planner

Search our weather history database for the weather conditions in past years. The results will help you decide how hot, cold, wet, or windy it might be!

Date:

Astronomy

Aug. 09, 2012 Rise Set
Actual Time 6:37 AM CDT 8:38 PM CDT
Civil Twilight 6:07 AM CDT 9:08 PM CDT
Nautical Twilight 5:30 AM CDT 9:45 PM CDT
Astronomical Twilight 4:50 AM CDT 10:25 PM CDT
Moon No Moon Rise 2:24 PM CDT (8/9)
Length of Visible Light 15h 01m
Length of Day
14h 01m
Waning Gibbous, 51% of the Moon is Illuminated
Aug 9
Waning Gibbous
Aug 9
Last Quarter
Aug 17
New
Aug 24
First Quarter
Aug 31
Full

Hourly Weather History & Observations

Time (CDT) Temp. Heat Index Dew Point Humidity Pressure Visibility Wind Dir Wind Speed Gust Speed Precip Events Conditions
12:53 AM 71.1 °F - 64.9 °F 81% 30.01 in 10.0 mi NNE 9.2 mph - N/A   Clear
1:53 AM 70.0 °F - 64.9 °F 84% 30.02 in 10.0 mi North 8.1 mph - N/A   Clear
2:53 AM 68.0 °F - 64.9 °F 90% 30.03 in 10.0 mi North 8.1 mph - N/A   Clear
3:53 AM 66.0 °F - 64.0 °F 93% 30.02 in 10.0 mi North 9.2 mph - N/A   Clear
4:53 AM 64.9 °F - 63.0 °F 93% 30.03 in 10.0 mi North 9.2 mph - N/A   Clear
5:53 AM 64.0 °F - 62.1 °F 93% 30.05 in 10.0 mi NNW 8.1 mph - N/A   Clear
6:53 AM 63.0 °F - 61.0 °F 93% 30.07 in 10.0 mi NNW 9.2 mph - N/A   Clear
7:53 AM 64.9 °F - 61.0 °F 87% 30.09 in 10.0 mi NNW 10.4 mph - N/A   Clear
8:53 AM 68.0 °F - 61.0 °F 78% 30.11 in 10.0 mi North 10.4 mph - N/A   Clear
9:53 AM 71.1 °F - 59.0 °F 66% 30.11 in 10.0 mi NNE 10.4 mph - N/A   Clear
10:53 AM 75.9 °F - 59.0 °F 56% 30.11 in 10.0 mi North 12.7 mph - N/A   Partly Cloudy
11:53 AM 78.1 °F - 55.9 °F 46% 30.10 in 10.0 mi North 16.1 mph - N/A   Clear
12:53 PM 81.0 °F 80.8 °F 55.9 °F 42% 30.09 in 10.0 mi NNE 13.8 mph 18.4 mph N/A   Clear
1:53 PM 82.0 °F - 52.0 °F 35% 30.08 in 10.0 mi NNE 9.2 mph 19.6 mph N/A   Clear
2:53 PM 84.0 °F - 52.0 °F 33% 30.07 in 10.0 mi NNE 15.0 mph 21.9 mph N/A   Clear
3:53 PM 84.9 °F 83.2 °F 53.1 °F 33% 30.06 in 10.0 mi NE 10.4 mph - N/A   Clear
4:53 PM 82.9 °F 81.9 °F 54.0 °F 37% 30.05 in 10.0 mi NE 9.2 mph - N/A   Clear
5:53 PM 84.0 °F 82.5 °F 53.1 °F 34% 30.04 in 10.0 mi NE 9.2 mph - N/A   Clear
6:53 PM 82.0 °F 81.2 °F 53.1 °F 37% 30.04 in 10.0 mi NE 9.2 mph - N/A   Clear
7:53 PM 79.0 °F - 57.0 °F 47% 30.04 in 10.0 mi NE 3.5 mph - N/A   Clear
8:53 PM 73.9 °F - 59.0 °F 59% 30.04 in 10.0 mi Calm Calm - N/A   Clear
9:53 PM 70.0 °F - 60.1 °F 71% 30.06 in 10.0 mi Calm Calm - N/A   Clear
10:53 PM 66.9 °F - 60.1 °F 79% 30.06 in 10.0 mi West 4.6 mph - N/A   Clear
11:53 PM 66.0 °F - 59.0 °F 78% 30.07 in 10.0 mi NNW 5.8 mph - N/A   Clear